Weather History for Kansas City, MO

Change the Weather History Date:

Monday, August 4, 2014

  Actual Average Record
Temperature  
Mean Temperature 82 °F -  
Max Temperature 93 °F 86 °F 99 °F (2008)
Min Temperature 72 °F 68 °F 69 °F (2003)
Cooling Degree Days 18    
Growing Degree Days 32 (Base 50)    
Moisture  
Dew Point 66 °F    
Average Humidity 59    
Maximum Humidity 74    
Minimum Humidity 41    
Precipitation  
Precipitation 0.00 in - - ()
Sea Level Pressure  
Sea Level Pressure 30.00 in    
Wind  
Wind Speed 7 mph (South)    
Max Wind Speed 16 mph    
Max Gust Speed 23 mph    
Visibility 10 miles    
Events      
Averages and records for this station are not official NWS values.
T = Trace of Precipitation, MM = Missing Value Source: NWS Daily Summary

Daily Weather History Graph

Daily Weather History Graph

Search for Another Location

Airport:

Trip Planner

Search our weather history database for the weather conditions in past years. The results will help you decide how hot, cold, wet, or windy it might be!

Date:

Astronomy

Aug. 04, 2014 Rise Set
Actual Time 6:21 AM CDT 8:26 PM CDT
Civil Twilight 5:52 AM CDT 8:56 PM CDT
Nautical Twilight 5:15 AM CDT 9:32 PM CDT
Astronomical Twilight 4:36 AM CDT 10:11 PM CDT
Moon 2:39 PM CDT (8/4) 12:28 AM CDT (8/4)
Length of Visible Light 15h 04m
Length of Day
14h 05m
First Quarter, 57% of the Moon is Illuminated
Aug 4
First Quarter
Aug 10
Full
Aug 17
Last Quarter
Aug 25
New
Sep 2
First Quarter

Hourly Weather History & Observations

Time (CDT) Temp. Heat Index Dew Point Humidity Pressure Visibility Wind Dir Wind Speed Gust Speed Precip Events Conditions
12:54 AM 75.9 °F - 62.1 °F 62% 30.03 in 10.0 mi SSW 5.8 mph - N/A   Clear
1:54 AM 75.0 °F - 64.0 °F 69% 30.04 in 10.0 mi East 5.8 mph - N/A   Scattered Clouds
2:54 AM 75.0 °F - 63.0 °F 66% 30.02 in 10.0 mi Variable 3.5 mph - N/A   Partly Cloudy
3:54 AM 75.0 °F - 62.1 °F 64% 30.03 in 10.0 mi Variable 5.8 mph - N/A   Clear
4:54 AM 73.0 °F - 62.1 °F 68% 30.02 in 10.0 mi SSW 10.4 mph - N/A   Partly Cloudy
5:54 AM 73.0 °F - 62.1 °F 68% 30.04 in 10.0 mi South 10.4 mph - N/A   Partly Cloudy
6:54 AM 72.0 °F - 63.0 °F 73% 30.05 in 10.0 mi East 8.1 mph - N/A   Mostly Cloudy
7:54 AM 73.0 °F - 63.0 °F 71% 30.08 in 10.0 mi East 8.1 mph - N/A   Overcast
8:54 AM 73.9 °F - 64.0 °F 71% 30.08 in 10.0 mi SE 8.1 mph - N/A   Overcast
9:42 AM 77.0 °F - 64.9 °F 66% 30.09 in 10.0 mi SE 6.9 mph - N/A   Mostly Cloudy
9:54 AM 78.1 °F - 64.9 °F 64% 30.06 in 10.0 mi SSE 8.1 mph - N/A   Mostly Cloudy
10:54 AM 82.0 °F 84.1 °F 66.0 °F 58% 30.06 in 10.0 mi South 10.4 mph - N/A   Partly Cloudy
11:54 AM 84.9 °F 88.2 °F 68.0 °F 57% 30.03 in 10.0 mi South 12.7 mph - N/A   Clear
12:54 PM 87.1 °F 91.3 °F 69.1 °F 55% 30.01 in 10.0 mi SSW 13.8 mph - N/A   Clear
1:54 PM 91.0 °F 94.3 °F 66.9 °F 45% 29.99 in 10.0 mi SW 16.1 mph 23.0 mph N/A   Scattered Clouds
2:54 PM 93.0 °F 96.4 °F 66.9 °F 42% 29.96 in 10.0 mi SSW 12.7 mph - N/A   Clear
3:54 PM 93.0 °F 95.9 °F 66.0 °F 41% 29.94 in 10.0 mi WSW 10.4 mph - N/A   Partly Cloudy
4:54 PM 93.0 °F 95.9 °F 66.0 °F 41% 29.94 in 10.0 mi WSW 9.2 mph - N/A   Clear
5:54 PM 91.0 °F 93.0 °F 64.9 °F 42% 29.93 in 10.0 mi SW 5.8 mph - N/A   Clear
6:54 PM 91.0 °F 92.6 °F 64.0 °F 41% 29.93 in 10.0 mi West 4.6 mph - N/A   Clear
7:54 PM 87.1 °F 91.3 °F 69.1 °F 55% 29.93 in 10.0 mi NNE 4.6 mph - N/A   Clear
8:54 PM 84.0 °F 87.8 °F 69.1 °F 61% 29.94 in 10.0 mi ENE 6.9 mph - N/A   Clear
9:54 PM 82.0 °F 85.5 °F 69.1 °F 65% 29.96 in 10.0 mi East 3.5 mph - N/A   Clear
10:54 PM 82.9 °F 86.5 °F 69.1 °F 63% 29.96 in 10.0 mi North 3.5 mph - N/A   Clear
11:54 PM 80.1 °F 83.6 °F 71.1 °F 74% 29.96 in 10.0 mi Calm Calm - N/A   Clear